Tracking 31027 objects as of 19-Jul-2025
HD Live streaming from Space Station
objects crossing your sky now

SL-12 R/B(2)

Track SL-12 R/B(2) now!


NORAD ID: 14117
Int'l Code: 1982-009F
Perigee: 35,430.9 km
Apogee: 35,762.3 km
Inclination: 7.2 °
Period: 1,426.0 minutes
Semi major axis: 41967 km
RCS: 2.3838 m2 (large)
Launch date: February 5, 1982
Source: Commonwealth of Independent States (former USSR) (CIS)
Launch site: TYURATAM MISSILE AND SPACE COMPLEX (TTMTR)

Note: This is a ROCKET BODY
Your satellite tracking list
COSMOS 2502
Track 1 satellite(s)




NASA's NSSDC Master Catalog

Two Line Element Set (TLE):
1 14117U 82009F   25199.02614056  .00000116  00000-0  00000-0 0  9991
2 14117   7.2309 296.6972 0039487 190.7140 181.8750  1.00979054120065
Source of the keplerian elements: AFSPC